DLH431 KORD-EDDF

Flight info

Callsign DLH431
Flight time N/A
Altitude 35000
Route RAYNR DCT BRTMN DCT TAAYZ DCT PECOK DCT NOTAP DCT NAGNO DCT ANCER DCT MELDI/M083F370 DCT 54N050W 55N040W 55N030W 55N020W DCT RESNO/N0481F370 DCT NETKI DCT MORAG/N0471F390 DCT NUCHU L607 KONAN DCT KOK DCT SPI T180 NIVNU/N0424F230 T847 IMCOM IMCOM1A
Aircraft A346/H-SDE2E3FGHIJ3J4J5M1RWXY/LB1D1

Departure

Time N/A
Airport Chicago O'Hare International Airport (KORD)

Arrival

Time 2026-04-16 21:12
Airport Frankfurt Main Airport (EDDF)
Time Latitude Longitude Altitude Speed Heading
2026-04-16 19:20 54.41546 -11.46074 34663 ft 482 kts 118°
2026-04-16 19:21 54.38945 -11.35438 34679 ft 482 kts 118°
2026-04-16 19:21 54.36336 -11.24823 34683 ft 482 kts 118°
2026-04-16 19:22 54.33720 -11.14228 34682 ft 482 kts 118°
2026-04-16 19:22 54.31080 -11.03598 34987 ft 486 kts 118°
2026-04-16 19:22 54.29755 -10.98275 35440 ft 484 kts 118°
2026-04-16 19:23 54.28435 -10.92986 35848 ft 483 kts 118°
2026-04-16 19:23 54.27125 -10.87753 36176 ft 483 kts 118°
2026-04-16 19:23 54.25793 -10.82444 36428 ft 485 kts 118°
2026-04-16 19:23 54.24458 -10.77129 36723 ft 486 kts 118°
2026-04-16 19:24 54.23118 -10.71815 37025 ft 486 kts 118°
2026-04-16 19:24 54.21776 -10.66504 37301 ft 486 kts 118°
2026-04-16 19:24 54.20431 -10.61189 37581 ft 487 kts 119°
2026-04-16 19:24 54.19087 -10.55893 37848 ft 487 kts 119°
2026-04-16 19:25 54.17729 -10.50560 38116 ft 488 kts 119°
2026-04-16 19:25 54.16376 -10.45255 38359 ft 488 kts 119°
2026-04-16 19:25 54.15030 -10.39992 38565 ft 489 kts 119°
2026-04-16 19:25 54.13665 -10.34666 38727 ft 489 kts 119°
2026-04-16 19:26 54.12300 -10.29350 38732 ft 489 kts 119°
2026-04-16 19:26 54.09560 -10.18714 38745 ft 489 kts 119°
2026-04-16 19:27 54.06809 -10.08092 38735 ft 489 kts 119°
2026-04-16 19:27 54.04045 -9.97456 38746 ft 490 kts 119°
2026-04-16 19:28 54.01267 -9.86839 38773 ft 490 kts 120°
2026-04-16 19:28 53.98489 -9.76265 38774 ft 490 kts 120°
2026-04-16 19:29 53.97321 -9.71835 38777 ft 490 kts 120°
2026-04-16 19:29 53.94515 -9.61224 38788 ft 490 kts 120°
2026-04-16 19:30 53.91709 -9.50683 38798 ft 489 kts 120°
2026-04-16 19:30 53.88897 -9.40148 38795 ft 490 kts 120°
2026-04-16 19:31 53.86069 -9.29597 38803 ft 491 kts 120°
2026-04-16 19:31 53.83241 -9.19098 38816 ft 491 kts 120°
2026-04-16 19:32 53.80391 -9.08567 38817 ft 491 kts 120°
2026-04-16 19:32 53.77529 -8.98036 38835 ft 491 kts 120°
2026-04-16 19:33 53.74659 -8.87529 38809 ft 491 kts 120°
2026-04-16 19:33 53.71779 -8.77028 38853 ft 492 kts 120°
2026-04-16 19:34 53.68891 -8.66550 38841 ft 492 kts 120°
2026-04-16 19:34 53.66009 -8.56141 38851 ft 492 kts 121°
2026-04-16 19:35 53.63094 -8.45665 38866 ft 492 kts 121°
2026-04-16 19:35 53.60173 -8.35210 38866 ft 492 kts 121°
2026-04-16 19:36 53.57246 -8.24778 38862 ft 492 kts 121°
2026-04-16 19:36 53.54308 -8.14355 38881 ft 492 kts 121°
2026-04-16 19:37 53.51368 -8.03968 38892 ft 492 kts 121°
2026-04-16 19:37 53.48416 -7.93588 38892 ft 492 kts 121°
2026-04-16 19:38 53.45472 -7.83282 38894 ft 492 kts 121°
2026-04-16 19:38 53.42495 -7.72910 38886 ft 492 kts 121°
2026-04-16 19:39 53.39512 -7.62557 38916 ft 493 kts 121°
2026-04-16 19:39 53.36517 -7.52210 38928 ft 493 kts 122°
2026-04-16 19:40 53.33516 -7.41887 38915 ft 493 kts 122°
2026-04-16 19:40 53.30501 -7.31563 38934 ft 493 kts 122°
2026-04-16 19:41 53.27993 -7.23009 38947 ft 493 kts 122°
2026-04-16 19:41 53.24965 -7.12717 38942 ft 493 kts 122°
2026-04-16 19:42 53.21927 -7.02441 38956 ft 493 kts 122°
2026-04-16 19:42 53.18879 -6.92179 38966 ft 493 kts 122°
2026-04-16 19:43 53.15828 -6.81947 38966 ft 493 kts 122°
2026-04-16 19:43 53.12765 -6.71719 38984 ft 492 kts 122°
2026-04-16 19:44 53.09697 -6.61519 38967 ft 492 kts 122°
2026-04-16 19:44 53.06611 -6.51302 38954 ft 494 kts 122°
2026-04-16 19:45 53.03534 -6.41156 38976 ft 494 kts 123°
2026-04-16 19:45 53.00430 -6.30971 38991 ft 494 kts 123°
2026-04-16 19:46 52.97313 -6.20780 39009 ft 494 kts 123°
2026-04-16 19:46 52.94189 -6.10610 39009 ft 494 kts 123°
2026-04-16 19:47 52.91058 -6.00463 39007 ft 494 kts 123°
2026-04-16 19:47 52.87940 -5.90400 39019 ft 494 kts 123°
2026-04-16 19:48 52.84790 -5.80277 39020 ft 494 kts 123°
2026-04-16 19:48 52.81629 -5.70161 39031 ft 494 kts 123°
2026-04-16 19:49 52.78455 -5.60053 39038 ft 494 kts 123°
2026-04-16 19:49 52.75273 -5.49959 39038 ft 494 kts 123°
2026-04-16 19:50 52.72123 -5.39852 39050 ft 494 kts 123°
2026-04-16 19:50 52.68975 -5.29741 39050 ft 495 kts 123°
2026-04-16 19:51 52.65834 -5.19710 39048 ft 494 kts 123°
2026-04-16 19:51 52.62667 -5.09643 39044 ft 494 kts 123°
2026-04-16 19:52 52.59486 -4.99589 39034 ft 495 kts 124°
2026-04-16 19:52 52.56293 -4.89535 39060 ft 495 kts 124°
2026-04-16 19:53 52.53091 -4.79492 39064 ft 495 kts 124°
2026-04-16 19:53 52.49881 -4.69468 39072 ft 495 kts 124°
2026-04-16 19:54 52.46664 -4.59462 39077 ft 495 kts 124°
2026-04-16 19:54 52.43441 -4.49475 39065 ft 495 kts 124°
2026-04-16 19:55 52.40229 -4.39567 39065 ft 495 kts 124°
2026-04-16 19:55 52.36987 -4.29603 39093 ft 495 kts 124°
2026-04-16 19:56 52.33738 -4.19661 39094 ft 495 kts 124°
2026-04-16 19:56 52.30476 -4.09718 39108 ft 495 kts 124°
2026-04-16 19:57 52.27210 -3.99803 39106 ft 495 kts 124°
2026-04-16 19:57 52.23937 -3.89908 39091 ft 495 kts 124°
2026-04-16 19:58 52.20647 -3.80002 39110 ft 496 kts 124°
2026-04-16 19:58 52.17346 -3.70098 39118 ft 496 kts 124°
2026-04-16 19:59 52.14059 -3.60275 39121 ft 496 kts 125°
2026-04-16 19:59 52.10743 -3.50410 39124 ft 496 kts 125°
2026-04-16 20:00 52.05742 -3.35600 39111 ft 498 kts 125°
2026-04-16 20:00 52.02391 -3.25727 39130 ft 499 kts 125°
2026-04-16 20:01 51.99026 -3.15851 39109 ft 498 kts 125°
2026-04-16 20:01 51.95662 -3.06011 39116 ft 498 kts 125°
2026-04-16 20:02 51.92287 -2.96187 39107 ft 498 kts 125°
2026-04-16 20:02 51.88926 -2.86446 39096 ft 499 kts 125°
2026-04-16 20:03 51.85531 -2.76638 39134 ft 499 kts 125°
2026-04-16 20:03 51.82120 -2.66815 39134 ft 499 kts 125°
2026-04-16 20:04 51.78705 -2.57023 39132 ft 499 kts 125°
2026-04-16 20:04 51.75284 -2.47255 39126 ft 499 kts 125°
2026-04-16 20:05 51.71852 -2.37503 39123 ft 500 kts 125°
2026-04-16 20:05 51.68423 -2.27790 39136 ft 500 kts 125°
2026-04-16 20:06 51.64971 -2.18040 39143 ft 500 kts 125°
2026-04-16 20:06 51.61508 -2.08302 39155 ft 500 kts 125°
2026-04-16 20:07 51.58039 -1.98589 39167 ft 500 kts 126°
2026-04-16 20:07 51.54551 -1.88868 39149 ft 501 kts 125°
2026-04-16 20:08 51.51064 -1.79136 39165 ft 503 kts 124°
2026-04-16 20:08 51.48005 -1.68972 39168 ft 508 kts 117°
2026-04-16 20:09 51.45675 -1.58301 39172 ft 512 kts 110°
2026-04-16 20:09 51.44045 -1.47124 39177 ft 515 kts 105°
2026-04-16 20:10 51.42553 -1.35886 39182 ft 515 kts 105°
2026-04-16 20:10 51.40998 -1.24651 39186 ft 515 kts 106°
2026-04-16 20:11 51.39632 -1.13363 39186 ft 517 kts 101°
2026-04-16 20:11 51.38928 -1.01872 39186 ft 518 kts 97°
2026-04-16 20:12 51.38357 -0.90340 39187 ft 518 kts 97°
2026-04-16 20:12 51.37762 -0.78759 39201 ft 518 kts 97°
2026-04-16 20:13 51.37153 -0.67299 39203 ft 517 kts 97°
2026-04-16 20:13 51.36522 -0.55766 39198 ft 517 kts 97°
2026-04-16 20:14 51.35876 -0.44183 39201 ft 517 kts 97°
2026-04-16 20:14 51.35223 -0.32676 39199 ft 517 kts 97°
2026-04-16 20:15 51.34561 -0.21207 39207 ft 517 kts 97°
2026-04-16 20:15 51.33885 -0.09722 39207 ft 517 kts 97°
2026-04-16 20:16 51.33194 0.01744 39206 ft 516 kts 98°
2026-04-16 20:16 51.32744 0.07365 39101 ft 515 kts 100°
2026-04-16 20:16 51.32223 0.13053 39076 ft 515 kts 101°
2026-04-16 20:17 51.31143 0.24428 39019 ft 515 kts 101°
2026-04-16 20:17 51.30053 0.35781 38972 ft 515 kts 101°
2026-04-16 20:18 51.28959 0.47109 38955 ft 515 kts 101°
2026-04-16 20:18 51.27852 0.58423 38980 ft 515 kts 101°
2026-04-16 20:19 51.26748 0.69664 39036 ft 514 kts 101°
2026-04-16 20:19 51.25624 0.80967 39100 ft 514 kts 101°
2026-04-16 20:20 51.24489 0.92275 39174 ft 514 kts 101°
2026-04-16 20:20 51.23338 1.03567 39218 ft 514 kts 101°
2026-04-16 20:21 51.22185 1.14848 39225 ft 514 kts 101°
2026-04-16 20:21 51.21026 1.26063 39229 ft 514 kts 101°
2026-04-16 20:22 51.19847 1.37342 39224 ft 514 kts 101°
2026-04-16 20:22 51.18657 1.48595 39223 ft 514 kts 101°
2026-04-16 20:23 51.17456 1.59866 39232 ft 514 kts 101°
2026-04-16 20:23 51.16246 1.71119 39225 ft 514 kts 101°
2026-04-16 20:24 51.15033 1.82283 39231 ft 514 kts 101°
2026-04-16 20:24 51.13797 1.93525 39249 ft 514 kts 101°
2026-04-16 20:25 51.12822 2.04815 39254 ft 514 kts 95°
2026-04-16 20:25 51.12256 2.16193 39247 ft 515 kts 95°
2026-04-16 20:26 51.11697 2.27568 39244 ft 515 kts 95°
2026-04-16 20:26 51.11111 2.38958 39245 ft 514 kts 95°
2026-04-16 20:27 51.10508 2.50310 39249 ft 514 kts 95°
2026-04-16 20:27 51.09804 2.61600 39247 ft 513 kts 99°
2026-04-16 20:28 51.08386 2.72739 39246 ft 513 kts 106°
2026-04-16 20:28 51.06406 2.83638 39255 ft 512 kts 108°
2026-04-16 20:29 51.04724 2.92673 39254 ft 512 kts 107°
2026-04-16 20:29 51.02369 3.05384 39254 ft 512 kts 107°
2026-04-16 20:30 51.00692 3.14420 39252 ft 512 kts 107°
2026-04-16 20:30 50.98664 3.25303 39250 ft 512 kts 107°
2026-04-16 20:31 50.96289 3.37947 39246 ft 511 kts 107°
2026-04-16 20:31 50.94592 3.46946 39248 ft 511 kts 107°
2026-04-16 20:32 50.92542 3.57765 39248 ft 511 kts 107°
2026-04-16 20:32 50.90478 3.68586 39252 ft 511 kts 108°
2026-04-16 20:33 50.88401 3.79403 39259 ft 511 kts 108°
2026-04-16 20:33 50.86313 3.90225 39258 ft 512 kts 108°
2026-04-16 20:34 50.84209 4.01070 39261 ft 511 kts 108°
2026-04-16 20:34 50.82107 4.11844 39260 ft 511 kts 108°
2026-04-16 20:35 50.79987 4.22648 39240 ft 511 kts 108°
2026-04-16 20:35 50.77868 4.33380 39253 ft 511 kts 108°
2026-04-16 20:36 50.75738 4.44118 39258 ft 511 kts 108°
2026-04-16 20:36 50.73615 4.54758 39260 ft 511 kts 108°
2026-04-16 20:37 50.71465 4.65476 39260 ft 511 kts 108°
2026-04-16 20:37 50.69306 4.76167 39257 ft 511 kts 108°
2026-04-16 20:38 50.67136 4.86866 39255 ft 511 kts 108°
2026-04-16 20:38 50.64958 4.97549 39257 ft 511 kts 108°
2026-04-16 20:39 50.62773 5.08205 39257 ft 511 kts 108°
2026-04-16 20:39 50.60584 5.18814 39130 ft 513 kts 108°
2026-04-16 20:40 50.59479 5.24150 38600 ft 513 kts 108°
2026-04-16 20:40 50.58370 5.29501 38032 ft 513 kts 108°
2026-04-16 20:40 50.57257 5.34854 37458 ft 515 kts 108°
2026-04-16 20:40 50.56137 5.40223 36903 ft 517 kts 108°
2026-04-16 20:41 50.55009 5.45614 36324 ft 518 kts 109°
2026-04-16 20:41 50.53869 5.51044 35721 ft 520 kts 109°
2026-04-16 20:41 50.52729 5.56454 35141 ft 522 kts 109°
2026-04-16 20:41 50.51586 5.61886 34558 ft 524 kts 108°
2026-04-16 20:42 50.50530 5.67403 33883 ft 526 kts 107°
2026-04-16 20:42 50.49503 5.72916 33211 ft 526 kts 107°
2026-04-16 20:42 50.48478 5.78436 32572 ft 525 kts 107°
2026-04-16 20:42 50.47450 5.83947 31914 ft 525 kts 107°
2026-04-16 20:43 50.46419 5.89449 31261 ft 525 kts 107°
2026-04-16 20:43 50.45381 5.94957 30581 ft 525 kts 107°
2026-04-16 20:43 50.44340 6.00465 29835 ft 526 kts 107°
2026-04-16 20:43 50.43290 6.05984 29081 ft 526 kts 107°
2026-04-16 20:44 50.42242 6.11477 28349 ft 524 kts 106°
2026-04-16 20:44 50.41211 6.16880 27726 ft 521 kts 107°
2026-04-16 20:44 50.40176 6.22288 27327 ft 514 kts 107°
2026-04-16 20:44 50.39148 6.27634 26845 ft 509 kts 107°
2026-04-16 20:45 50.38126 6.32937 26346 ft 504 kts 107°
2026-04-16 20:45 50.37159 6.38187 25860 ft 499 kts 104°
2026-04-16 20:45 50.36420 6.43484 25411 ft 493 kts 99°
2026-04-16 20:45 50.35928 6.48792 24972 ft 488 kts 95°
2026-04-16 20:46 50.35603 6.54059 24515 ft 483 kts 94°
2026-04-16 20:46 50.35300 6.59288 24072 ft 479 kts 94°
2026-04-16 20:46 50.34991 6.64469 23598 ft 475 kts 94°
2026-04-16 20:46 50.34671 6.69592 23109 ft 470 kts 95°
2026-04-16 20:47 50.34350 6.74596 22659 ft 465 kts 95°
2026-04-16 20:47 50.34031 6.79621 22213 ft 460 kts 95°
2026-04-16 20:47 50.33523 6.84542 21798 ft 455 kts 102°
2026-04-16 20:47 50.32649 6.89285 21345 ft 450 kts 110°
2026-04-16 20:48 50.31445 6.93793 20922 ft 446 kts 115°
2026-04-16 20:48 50.30122 6.98172 20488 ft 442 kts 116°
2026-04-16 20:48 50.28801 7.02485 20059 ft 438 kts 116°
2026-04-16 20:48 50.27501 7.06775 19623 ft 435 kts 116°
2026-04-16 20:49 50.26211 7.11061 19197 ft 431 kts 116°
2026-04-16 20:49 50.24956 7.15242 18768 ft 428 kts 116°
2026-04-16 20:49 50.23692 7.19451 18328 ft 425 kts 116°
2026-04-16 20:49 50.22436 7.23629 17848 ft 422 kts 116°
2026-04-16 20:50 50.21191 7.27765 17409 ft 419 kts 115°
2026-04-16 20:50 50.20285 7.32125 17091 ft 426 kts 97°
2026-04-16 20:50 50.20251 7.36755 16862 ft 425 kts 85°
2026-04-16 20:50 50.20497 7.41357 16597 ft 424 kts 83°
2026-04-16 20:51 50.20758 7.45943 16348 ft 422 kts 84°
2026-04-16 20:51 50.20978 7.50526 16093 ft 420 kts 85°
2026-04-16 20:51 50.21152 7.55021 15843 ft 419 kts 85°
2026-04-16 20:51 50.21299 7.59569 15593 ft 417 kts 86°
2026-04-16 20:52 50.21428 7.64096 15337 ft 415 kts 86°
2026-04-16 20:52 50.21544 7.68598 15099 ft 414 kts 86°
2026-04-16 20:52 50.21653 7.73081 14849 ft 412 kts 87°
2026-04-16 20:52 50.21758 7.77551 14612 ft 410 kts 87°
2026-04-16 20:53 50.21859 7.81998 14372 ft 408 kts 87°
2026-04-16 20:53 50.21957 7.86423 14130 ft 406 kts 87°
2026-04-16 20:53 50.22053 7.90827 13875 ft 404 kts 87°
2026-04-16 20:53 50.22147 7.95215 13604 ft 402 kts 87°
2026-04-16 20:54 50.22238 7.99579 13338 ft 400 kts 87°
2026-04-16 20:54 50.22336 8.03916 13072 ft 397 kts 87°
2026-04-16 20:54 50.22442 8.08179 12798 ft 386 kts 87°
2026-04-16 20:54 50.22548 8.12271 12545 ft 376 kts 87°
2026-04-16 20:55 50.22657 8.16308 12298 ft 367 kts 87°
2026-04-16 20:55 50.22768 8.20247 12034 ft 358 kts 87°
2026-04-16 20:55 50.22880 8.24087 11722 ft 348 kts 87°
2026-04-16 20:55 50.22993 8.27806 11464 ft 336 kts 87°
2026-04-16 20:56 50.23104 8.31394 11205 ft 324 kts 87°
2026-04-16 20:56 50.23210 8.34851 10949 ft 313 kts 87°
2026-04-16 20:56 50.23317 8.38206 10693 ft 303 kts 87°
2026-04-16 20:56 50.23425 8.41456 10451 ft 294 kts 87°
2026-04-16 20:57 50.23535 8.44603 10243 ft 283 kts 87°
2026-04-16 20:57 50.23643 8.47595 10240 ft 268 kts 87°
2026-04-16 20:57 50.23748 8.50462 10223 ft 261 kts 87°
2026-04-16 20:57 50.23853 8.53294 10225 ft 261 kts 87°
2026-04-16 20:58 50.23956 8.56088 10223 ft 261 kts 87°
2026-04-16 20:58 50.24062 8.58964 10109 ft 261 kts 87°
2026-04-16 20:58 50.24169 8.61795 9839 ft 259 kts 87°
2026-04-16 20:58 50.24274 8.64599 9572 ft 257 kts 87°
2026-04-16 20:59 50.24379 8.67387 9306 ft 256 kts 87°
2026-04-16 20:59 50.24480 8.70129 9055 ft 255 kts 87°
2026-04-16 20:59 50.24580 8.72900 8788 ft 254 kts 87°
2026-04-16 20:59 50.24679 8.75656 8529 ft 253 kts 87°
2026-04-16 21:00 50.24776 8.78409 8263 ft 252 kts 87°
2026-04-16 21:00 50.24872 8.81143 8028 ft 251 kts 87°
2026-04-16 21:00 50.24966 8.83880 7765 ft 250 kts 87°
2026-04-16 21:00 50.25058 8.86588 7516 ft 249 kts 87°
2026-04-16 21:01 50.25148 8.89300 7286 ft 248 kts 87°
2026-04-16 21:01 50.25236 8.91985 7239 ft 248 kts 87°
2026-04-16 21:01 50.25323 8.94687 7237 ft 248 kts 87°
2026-04-16 21:01 50.25409 8.97392 7236 ft 249 kts 87°
2026-04-16 21:02 50.25496 9.00102 7240 ft 248 kts 87°
2026-04-16 21:02 50.25582 9.02802 7211 ft 249 kts 87°
2026-04-16 21:02 50.25668 9.05509 6969 ft 248 kts 87°
2026-04-16 21:03 50.25832 9.10828 6472 ft 245 kts 87°
2026-04-16 21:03 50.25913 9.13488 6210 ft 244 kts 88°
2026-04-16 21:03 50.25991 9.16133 5959 ft 243 kts 90°
2026-04-16 21:03 50.25680 9.18690 5678 ft 239 kts 120°
2026-04-16 21:04 50.24584 9.20572 5411 ft 235 kts 152°
2026-04-16 21:04 50.23038 9.21273 5177 ft 232 kts 178°
2026-04-16 21:04 50.21485 9.20781 4905 ft 229 kts 211°
2026-04-16 21:04 50.20208 9.19309 4646 ft 228 kts 225°
2026-04-16 21:05 50.19122 9.17505 4388 ft 227 kts 229°
2026-04-16 21:05 50.18089 9.15643 4140 ft 227 kts 229°
2026-04-16 21:05 50.17133 9.13697 4018 ft 226 kts 238°
2026-04-16 21:05 50.16400 9.11508 4021 ft 229 kts 249°
2026-04-16 21:06 50.15889 9.09137 4023 ft 230 kts 253°
2026-04-16 21:06 50.15423 9.06741 4016 ft 231 kts 252°
2026-04-16 21:06 50.14931 9.04353 4018 ft 231 kts 251°
2026-04-16 21:06 50.14416 9.01998 4015 ft 231 kts 250°
2026-04-16 21:07 50.13874 8.99638 4012 ft 231 kts 250°
2026-04-16 21:07 50.13318 8.97291 4009 ft 231 kts 249°
2026-04-16 21:07 50.12749 8.94931 4027 ft 231 kts 249°
2026-04-16 21:07 50.12180 8.92592 4061 ft 231 kts 249°
2026-04-16 21:08 50.11603 8.90231 4012 ft 231 kts 249°
2026-04-16 21:08 50.11034 8.87895 4011 ft 231 kts 249°
2026-04-16 21:08 50.10464 8.85555 3941 ft 231 kts 249°
2026-04-16 21:08 50.09897 8.83216 3668 ft 230 kts 249°
2026-04-16 21:09 50.09337 8.80900 3369 ft 226 kts 249°
2026-04-16 21:09 50.08792 8.78640 3057 ft 218 kts 249°
2026-04-16 21:09 50.08272 8.76478 2763 ft 208 kts 249°
2026-04-16 21:09 50.07777 8.74422 2467 ft 202 kts 249°
2026-04-16 21:10 50.07289 8.72406 2199 ft 193 kts 248°
2026-04-16 21:10 50.06827 8.70527 1978 ft 179 kts 249°
2026-04-16 21:10 50.06400 8.68757 1717 ft 172 kts 249°
2026-04-16 21:10 50.06002 8.67002 1555 ft 167 kts 249°
2026-04-16 21:11 50.05592 8.65331 1285 ft 167 kts 248°
2026-04-16 21:11 50.05194 8.63642 1079 ft 160 kts 251°
2026-04-16 21:11 50.04801 8.62020 872 ft 167 kts 251°
2026-04-16 21:11 50.04413 8.60376 650 ft 158 kts 250°
2026-04-16 21:12 50.04039 8.58806 423 ft 152 kts 251°
2026-04-16 21:12 50.03705 8.57396 366 ft 116 kts 250°
2026-04-16 21:12 50.03492 8.56504 364 ft 64 kts 249°
2026-04-16 21:12 50.03364 8.55969 360 ft 49 kts 250°
2026-04-16 21:13 50.03315 8.55482 358 ft 42 kts 276°
2026-04-16 21:13 50.03338 8.55253 355 ft 0 kts 282°
2026-04-16 21:13 50.03339 8.55249 354 ft 1 kts 282°
2026-04-16 21:13 50.03343 8.55220 353 ft 5 kts 282°
2026-04-16 21:14 50.03352 8.55155 356 ft 8 kts 281°
2026-04-16 21:14 50.03363 8.55052 358 ft 11 kts 275°
2026-04-16 21:14 50.03357 8.54916 357 ft 14 kts 253°
2026-04-16 21:14 50.03316 8.54749 358 ft 19 kts 245°
2026-04-16 21:15 50.03278 8.54563 353 ft 14 kts 271°
2026-04-16 21:15 50.03347 8.54460 356 ft 9 kts 335°
2026-04-16 21:15 50.03356 8.54454 358 ft 0 kts 339°
2026-04-16 21:16 50.03373 8.54445 352 ft 8 kts 340°
2026-04-16 21:16 50.03438 8.54407 361 ft 10 kts 339°
2026-04-16 21:16 50.03512 8.54365 356 ft 13 kts 340°
2026-04-16 21:17 50.03562 8.54337 356 ft 1 kts 340°
2026-04-16 21:17 50.03580 8.54327 357 ft 3 kts 339°
2026-04-16 21:17 50.03588 8.54322 356 ft 1 kts 339°
2026-04-16 21:17 50.03618 8.54311 358 ft 7 kts 358°
2026-04-16 21:18 50.03662 8.54356 355 ft 10 kts 58°
2026-04-16 21:18 50.03695 8.54473 354 ft 14 kts 68°
2026-04-16 21:18 50.03732 8.54626 358 ft 16 kts 69°
2026-04-16 21:18 50.03774 8.54804 357 ft 19 kts 70°
2026-04-16 21:19 50.03823 8.55006 364 ft 21 kts 71°
2026-04-16 21:19 50.03877 8.55230 361 ft 23 kts 69°
2026-04-16 21:19 50.03916 8.55390 359 ft 24 kts 69°
2026-04-16 21:19 50.03975 8.55639 364 ft 22 kts 70°
2026-04-16 21:20 50.04022 8.55840 362 ft 20 kts 69°
2026-04-16 21:20 50.04082 8.55958 366 ft 12 kts 354°
2026-04-16 21:20 50.04162 8.55931 365 ft 13 kts 341°
2026-04-16 21:20 50.04250 8.55954 368 ft 14 kts 18°
2026-04-16 21:21 50.04347 8.55928 368 ft 15 kts 341°
2026-04-16 21:21 50.04461 8.55927 369 ft 18 kts 13°
2026-04-16 21:21 50.04565 8.56023 368 ft 19 kts 60°
2026-04-16 21:21 50.04612 8.56202 370 ft 14 kts 70°
2026-04-16 21:22 50.04648 8.56353 369 ft 14 kts 70°
2026-04-16 21:22 50.04698 8.56410 367 ft 10 kts 356°
2026-04-16 21:22 50.04738 8.56396 368 ft 3 kts 343°
2026-04-16 21:22 50.04748 8.56391 370 ft 0 kts 342°